Regional Weather Roundup
Issued by NWS Albany, NY

Home | Current Version | Previous Version | Text Only | Print | Product List | Glossary On
Versions: 1 2 3 4 5 6 7 8 9 10 11 12 13 14 15 16 17 18 19 20 21 22 23 24 25 26 27
000
ASUS41 KALY 211110
RWRALY

NEW YORK STATE HOURLY WEATHER ROUNDUP
NATIONAL WEATHER SERVICE ALBANY NY
700 AM EDT SAT OCT 21 2017

NOTE: "FAIR" INDICATES FEW OR NO CLOUDS BELOW 12,000 FEET WITH NO
SIGNIFICANT WEATHER AND/OR NO OBSTRUCTIONS TO VISIBILITY.

NYZ032-033-038>043-046>054-057>066-NYZ062>081-082-084-211200-
EAST


CITY           SKY/WX    TMP DP  RH WIND       PRES   REMARKS
ALBANY         PTCLDY    42  37  82 CALM      30.30R
GLENS FALLS    CLEAR     33  32  96 CALM      30.28R FOG
POUGHKEEPSIE   CLEAR     38  36  92 CALM      30.30R
NEWBURGH       CLEAR     45  39  81 W5        30.30R
MONTGOMERY     CLEAR     39  38  96 CALM      30.29R
WHITE PLAINS   CLEAR     50  41  71 W8        30.28R
ISLIP          PTCLDY    47  46  97 CALM      30.27R
NEW YORK CITY  PTCLDY    59  43  55 CALM      30.28R
CENTRAL PARK   PTCLDY    57  39  51 CALM      30.31R
$$

NYZ005>009-017-018-044>046-055-056-211200-
CENTRAL


CITY           SKY/WX    TMP DP  RH WIND       PRES   REMARKS
FULTON         CLEAR     40  38  93 CALM      30.27R
SYRACUSE       PTCLDY    39  37  92 E3        30.28R
ROME           CLEAR     38  36  92 E6        30.31R WCI  33
ELMIRA         CLEAR     34  34 100 CALM      30.32R
BINGHAMTON     CLEAR     44  35  70 SE3       30.31R
MONTICELLO     CLEAR     37  35  92 CALM      30.33R
$$

NYZ026>034-041>043-087-211200-
NORTH


CITY           SKY/WX    TMP DP  RH WIND       PRES   REMARKS
WATERTOWN      CLEAR     52  39  61 S6        30.25R
FORT DRUM      NOT AVBL
OGDENSBURG     FAIR      49  43  78 S6        30.22R
MASSENA        CLEAR     54  41  61 SW9       30.21R
SARANAC LAKE   CLEAR     32  31  96 CALM      30.24R
PLATTSBURGH    CLEAR     46  40  79 CALM      30.20R
$$

NYZ001>004-010>016-019>021-085-211200-
WEST


CITY           SKY/WX    TMP DP  RH WIND       PRES   REMARKS
NIAGARA FALLS  CLEAR     47  41  80 CALM      30.24S
BUFFALO        PTCLDY    50  38  63 S7        30.25S
DUNKIRK        CLEAR     47  39  74 CALM      30.26S
JAMESTOWN      CLEAR     48  35  60 CALM      30.30R
WELLSVILLE     CLOUDY    50  33  52 CALM      30.32R
ROCHESTER      CLEAR     47  40  76 SW8       30.27R
PENN YAN       CLEAR     45  40  82 SW6       30.29S
$$

             KEY
       WCI = WIND CHILL INDEX
       VSB = VISIBILITY
       HX  = HEAT INDEX
$$




USA.gov is the U.S. government's official web portal to all federal, state and local government web resources and services.